Flag for United Arab Emirates Weather past 2 weeks in Sharjah, Sharjah, United Arab Emirates

Now
90 °F

Clear.


Feels Like: 103 °F
Forecast: 87 / 106 °F
Wind: 1 mph from East

Location: Sharjah International Airport

Current Time: Aug 28, 2015 at 12:08:02 AM

Latest Report: Aug 27, 2015 at 11:00 PM


Visibility: 10 mi

Pressure: 29.56 "Hg

Humidity: 67%

Dew point: 77 °F

Historic Weather in Sharjah — Graph

°F

Sharjah temperature yesterday

Maximum temperature yesterday: 106 °F (at 11:00 AM)
Minimum temperature yesterday: 82 °F (at 7:00 AM)
Average temperature yesterday: 95 °F

Past Weeks' High & Low Weather Summary

 TemperatureHumidityPressure
High111 °F (Aug 15, 1:00 PM)83% (Aug 16, 10:00 PM)29.68 "Hg (Aug 16, 10:00 PM)
Low73 °F (Aug 16, 10:00 PM)12% (Aug 26, 3:00 PM)29.50 "Hg (Aug 14, 4:00 PM)
Average97 °F37%29.57 "Hg
* Reported Aug 12 11:00 PM — Aug 27 11:00 PM, Sharjah, Weather by CustomWeather, © 2015

Note: Actual official high and low records may vary slightly from our data, if they occured in-between our weather recording intervals... More about our weather records

Advertising

Sharjah weather history for previous 24 hours

 ConditionsComfort  
Time TempWeatherWind HumidityBarometerVisibility
11:00 PM
Thu, Aug 27
90 °FClear.1 mph67%29.56 "Hg10 mi
10:00 PM90 °FClear.3 mph59%29.56 "Hg10 mi
9:00 PM95 °FClear.5 mph47%29.56 "Hg10 mi
8:00 PM97 °FClear.5 mph47%29.56 "Hg10 mi
7:00 PM99 °FClear.7 mph39%29.53 "Hg10 mi
6:00 PM100 °FSunny.8 mph31%29.53 "Hg10 mi
5:00 PM102 °FSunny.10 mph31%29.53 "Hg10 mi
4:00 PM104 °FSunny.12 mph31%29.53 "Hg10 mi
3:00 PM104 °FSunny.13 mph31%29.56 "Hg10 mi
2:00 PM102 °FClear.12 mph42%29.59 "Hg5 mi
1:00 PM104 °FClear.12 mph38%29.59 "Hg5 mi
12:00 PM102 °FSunny.12 mph45%29.59 "Hg10 mi
11:00 AM106 °FSunny.5 mph32%29.62 "Hg10 mi
10:00 AM104 °FSunny.6 mph20%29.62 "Hg10 mi
9:00 AM99 °FSunny.5 mph27%29.62 "Hg10 mi
8:00 AM91 °FSunny.6 mph36%29.59 "Hg10 mi
7:00 AM82 °FSunny.6 mph58%29.59 "Hg10 mi
6:00 AM84 °FSunny.3 mph62%29.59 "Hg10 mi
5:00 AM84 °FClear.3 mph62%29.56 "Hg10 mi
4:00 AM84 °FClear.No wind58%29.53 "Hg10 mi
3:00 AM86 °FClear.2 mph55%29.53 "Hg10 mi
2:00 AM88 °FClear.1 mph55%29.53 "Hg10 mi
1:00 AM93 °FClear.3 mph44%29.53 "Hg10 mi
12:00 AM90 °FClear.2 mph55%29.56 "Hg10 mi
Weather by CustomWeather, © 2015

See weather overviewHow to use our weather pages